| time (UTC) | temp F | wind direction | speed knots | gust knots | rain 1hr in | rain 24hr in | rain mn in | humidity % | barometer mb |
| 20260508080002 | 41 | 306 | 0.0 | 0.0 | 0.00 | 0.01 | 0.00 | 80 | 1006.7 |
| 20260508074600 | 41 | 306 | 0.0 | 0.0 | 0.00 | 0.01 | 0.00 | 78 | 1006.4 |
| 20260508073058 | 42 | 305 | 0.0 | 0.0 | 0.00 | 0.01 | 0.00 | 75 | 1006.4 |
| 20260508071555 | 43 | 306 | 0.0 | 0.0 | 0.00 | 0.01 | 0.00 | 72 | 1006.2 |
| 20260508070049 | 44 | 305 | 0.0 | 0.0 | 0.00 | 0.01 | 0.00 | 70 | 1006.3 |
| 20260508064546 | 46 | 304 | 0.0 | 7.0 | 0.00 | 0.01 | 0.00 | 68 | 1006.6 |
| 20260508063045 | 46 | 291 | 7.0 | 8.7 | 0.00 | 0.02 | 0.00 | 69 | 1006.3 |
| 20260508061544 | 46 | 298 | 3.5 | 6.1 | 0.00 | 0.02 | 0.00 | 65 | 1006.4 |
| 20260508060043 | 46 | 305 | 1.7 | 5.2 | 0.00 | 0.02 | 0.00 | 64 | 1006.6 |
| 20260508054602 | 46 | 323 | 4.3 | 8.7 | 0.00 | 0.02 | 0.00 | 65 | 1006.5 |
| 20260508053042 | 46 | 304 | 6.1 | 9.6 | 0.00 | 0.10 | 0.00 | 66 | 1006.6 |
| 20260508051539 | 46 | 290 | 2.6 | 7.0 | 0.00 | 0.10 | 0.00 | 65 | 1006.9 |
| 20260508050008 | 46 | 296 | 4.3 | 6.1 | 0.00 | 0.10 | 0.00 | 76 | 1006.9 |
| 20260508044507 | 46 | 322 | 2.6 | 4.3 | 0.00 | 0.10 | 0.00 | 67 | 1007.1 |
| 20260508043036 | 46 | 311 | 2.6 | 5.2 | 0.00 | 0.20 | 0.00 | 70 | 1007.1 |
| 20260508041536 | 46 | 309 | 1.7 | 3.5 | 0.00 | 0.20 | 0.00 | 68 | 1007.1 |
| 20260508040029 | 47 | 304 | 0.9 | 3.5 | 0.00 | 0.20 | 0.00 | 64 | 1007.2 |
| 20260508034524 | 48 | 311 | 1.7 | 3.5 | 0.00 | 0.20 | 0.00 | 62 | 1007.1 |
| 20260508033026 | 48 | 345 | 1.7 | 4.3 | 0.00 | 0.20 | 0.00 | 60 | 1007.1 |
| 20260508031519 | 49 | 309 | 3.5 | 5.2 | 0.00 | 0.20 | 0.00 | 60 | 1007.3 |
| 20260508030018 | 49 | 320 | 1.7 | 5.2 | 0.00 | 0.20 | 0.00 | 58 | 1007.5 |
| 20260508024519 | 50 | 316 | 2.6 | 6.1 | 0.00 | 0.20 | 0.00 | 57 | 1007.2 |
| 20260508023029 | 50 | 314 | 3.5 | 7.0 | 0.00 | 0.20 | 0.00 | 56 | 1007.0 |
| 20260508021514 | 51 | 303 | 3.5 | 6.1 | 0.00 | 0.20 | 0.00 | 57 | 1006.9 |
| 20260508020013 | 51 | 286 | 0.9 | 7.0 | 0.00 | 0.20 | 0.00 | 55 | 1006.7 |
| 20260508014511 | 52 | 305 | 3.5 | 7.8 | 0.00 | 0.20 | 0.00 | 55 | 1006.7 |
| 20260508013009 | 53 | 309 | 4.3 | 7.8 | 0.00 | 0.25 | 0.00 | 55 | 1006.5 |
| 20260508011509 | 53 | 304 | 0.9 | 5.2 | 0.00 | 0.25 | 0.00 | 54 | 1006.5 |
| 20260508010013 | 54 | 295 | 4.3 | 10.4 | 0.00 | 0.25 | 0.00 | 50 | 1006.4 |
| 20260508004538 | 53 | 287 | 1.7 | 4.3 | 0.00 | 0.25 | 0.00 | 53 | 1006.1 |
| 20260508003036 | 54 | 326 | 0.0 | 3.5 | 0.00 | 0.27 | 0.00 | 52 | 1005.6 |
| 20260508001605 | 55 | 303 | 1.7 | 5.2 | 0.00 | 0.27 | 0.00 | 51 | 1005.5 |
| 20260508000004 | 56 | 311 | 2.6 | 9.6 | 0.00 | 0.27 | 0.00 | 50 | 1005.2 |
| 20260507234501 | 57 | 333 | 2.6 | 4.3 | 0.00 | 0.27 | 0.00 | 50 | 1005.2 |
| 20260507233002 | 58 | 288 | 2.6 | 7.0 | 0.00 | 0.40 | 0.00 | 49 | 1005.1 |
| 20260507231501 | 59 | 294 | 5.2 | 8.7 | 0.00 | 0.40 | 0.00 | 45 | 1004.8 |
| 20260507224605 | 59 | 301 | 5.2 | 9.6 | 0.00 | 0.40 | 0.00 | 44 | 1004.4 |
| 20260507223059 | 60 | 305 | 7.0 | 13.0 | 0.00 | 0.59 | 0.00 | 46 | 1004.3 |
| 20260507221556 | 59 | 309 | 7.8 | 13.0 | 0.00 | 0.59 | 0.00 | 47 | 1004.2 |
| 20260507220055 | 60 | 280 | 7.8 | 12.2 | 0.00 | 0.59 | 0.00 | 45 | 1004.0 |
| 20260507214532 | 60 | 299 | 8.7 | 13.9 | 0.00 | 0.59 | 0.00 | 45 | 1004.1 |
| 20260507213122 | 60 | 309 | 8.7 | 13.0 | 0.00 | 0.65 | 0.00 | 45 | 1004.0 |
| 20260507211517 | 58 | 321 | 5.2 | 8.7 | 0.00 | 0.65 | 0.00 | 66 | 1003.9 |
| 20260507210038 | 57 | 252 | 2.6 | 7.8 | 0.00 | 0.65 | 0.00 | 68 | 1003.9 |
| 20260507204514 | 57 | 154 | 6.1 | 9.6 | 0.00 | 0.65 | 0.00 | 70 | 1003.7 |
| 20260507203019 | 56 | 129 | 3.5 | 10.4 | 0.00 | 0.72 | 0.00 | 73 | 1003.6 |
| 20260507201541 | 55 | 146 | 4.3 | 10.4 | 0.00 | 0.72 | 0.00 | 76 | 1003.5 |
| 20260507200052 | 55 | 165 | 3.5 | 9.6 | 0.00 | 0.72 | 0.00 | 76 | 1003.6 |
| 20260507194508 | 54 | 176 | 7.0 | 11.3 | 0.00 | 0.72 | 0.00 | 76 | 1004.0 |
| 20260507193012 | 54 | 160 | 5.2 | 11.3 | 0.00 | 0.72 | 0.00 | 78 | 1004.2 |
| 20260507191513 | 54 | 208 | 7.0 | 13.0 | 0.00 | 0.72 | 0.00 | 76 | 1004.3 |
| 20260507190003 | 54 | 153 | 7.0 | 13.0 | 0.00 | 0.72 | 0.00 | 75 | 1004.5 |
| 20260507184502 | 55 | 167 | 6.1 | 12.2 | 0.00 | 0.72 | 0.00 | 70 | 1004.6 |
| 20260507183110 | 55 | 173 | 6.1 | 11.3 | 0.00 | 0.72 | 0.00 | 72 | 1004.8 |
| 20260507181556 | 54 | 148 | 6.1 | 12.2 | 0.00 | 0.72 | 0.00 | 75 | 1004.8 |
| 20260507180058 | 54 | 151 | 7.0 | 13.0 | 0.00 | 0.72 | 0.00 | 76 | 1004.8 |
| 20260507174601 | 55 | 244 | 5.2 | 11.3 | 0.00 | 0.72 | 0.00 | 77 | 1004.8 |
| 20260507173155 | 54 | 217 | 7.8 | 13.9 | 0.00 | 0.72 | 0.00 | 79 | 1004.9 |
| 20260507171551 | 54 | 156 | 7.8 | 11.3 | 0.00 | 0.72 | 0.00 | 80 | 1004.9 |
| 20260507170053 | 55 | 151 | 7.0 | 11.3 | 0.00 | 0.72 | 0.00 | 77 | 1004.8 |
| 20260507164556 | 56 | 155 | 6.1 | 11.3 | 0.00 | 0.72 | 0.00 | 76 | 1004.9 |
| 20260507163046 | 57 | 194 | 2.6 | 9.6 | 0.00 | 0.72 | 0.00 | 75 | 1005.2 |
| 20260507161552 | 57 | 176 | 2.6 | 7.8 | 0.00 | 0.72 | 0.00 | 75 | 1005.3 |
| 20260507160059 | 56 | 165 | 5.2 | 9.6 | 0.00 | 0.72 | 0.00 | 75 | 1005.4 |
| 20260507154542 | 57 | 152 | 0.9 | 7.0 | 0.00 | 0.72 | 0.00 | 73 | 1005.7 |
| 20260507153039 | 56 | 165 | 0.9 | 5.2 | 0.00 | 0.72 | 0.00 | 74 | 1005.8 |
| 20260507151533 | 55 | 303 | 0.9 | 4.3 | 0.00 | 0.72 | 0.00 | 74 | 1005.7 |
| 20260507150030 | 55 | 300 | 0.9 | 2.6 | 0.00 | 0.72 | 0.00 | 76 | 1005.7 |
| 20260507144541 | 54 | 310 | 0.9 | 2.6 | 0.00 | 0.72 | 0.00 | 76 | 1005.9 |
| 20260507143024 | 53 | 314 | 1.7 | 5.2 | 0.00 | 0.72 | 0.00 | 78 | 1006.0 |
| 20260507141523 | 53 | 310 | 1.7 | 4.3 | 0.00 | 0.72 | 0.00 | 80 | 1006.3 |
| 20260507140014 | 52 | 258 | 2.6 | 5.2 | 0.00 | 0.72 | 0.00 | 80 | 1006.4 |
| 20260507134513 | 51 | 299 | 0.0 | 3.5 | 0.00 | 0.72 | 0.00 | 81 | 1006.3 |
| 20260507133013 | 51 | 301 | 2.6 | 5.2 | 0.00 | 0.72 | 0.00 | 82 | 1006.3 |
| 20260507131505 | 50 | 291 | 2.6 | 7.0 | 0.00 | 0.72 | 0.00 | 83 | 1006.6 |
| 20260507130008 | 50 | 304 | 3.5 | 6.1 | 0.00 | 0.72 | 0.00 | 84 | 1006.9 |
| 20260507124606 | 49 | 304 | 3.5 | 7.8 | 0.00 | 0.72 | 0.00 | 84 | 1006.9 |
| 20260507123055 | 48 | 288 | 5.2 | 7.8 | 0.00 | 0.72 | 0.72 | 85 | 1006.7 |
| 20260507121557 | 48 | 321 | 5.2 | 10.4 | 0.00 | 0.72 | 0.72 | 86 | 1006.8 |
| 20260507120050 | 48 | 301 | 4.3 | 9.6 | 0.00 | 0.72 | 0.72 | 88 | 1006.6 |
| 20260507114553 | 47 | 323 | 2.6 | 4.3 | 0.00 | 0.72 | 0.72 | 94 | 1006.6 |
| 20260507113050 | 47 | 292 | 0.0 | 0.0 | 0.00 | 0.72 | 0.72 | 97 | 1006.6 |
| 20260507111557 | 47 | 293 | 0.0 | 0.9 | 0.00 | 0.72 | 0.72 | 98 | 1007.0 |
| 20260507110043 | 47 | 293 | 0.0 | 0.0 | 0.00 | 0.72 | 0.72 | 98 | 1006.7 |
| 20260507104541 | 0 | 0.0 | 0.0 | 0.00 | 0.72 | 0.72 | 1007.1 | ||
| 20260507103037 | 0 | 0.0 | 0.0 | 0.00 | 0.72 | 0.72 | 1007.2 | ||
| 20260507101532 | 0 | 0.0 | 0.0 | 0.00 | 0.72 | 0.72 | 1006.6 | ||
| 20260507100025 | 0 | 0.0 | 0.0 | 0.01 | 0.72 | 0.72 | 1006.1 | ||
| 20260507094524 | 0 | 0.0 | 0.0 | 0.01 | 0.72 | 0.72 | 1006.2 | ||
| 20260507093017 | 0 | 0.0 | 0.0 | 0.01 | 0.72 | 0.72 | 1005.7 | ||
| 20260507091513 | 0 | 314 | 1.7 | 7.8 | 0.01 | 0.72 | 0.72 | 1006.3 | |
| 20260507090113 | 48 | 314 | 2.6 | 8.7 | 0.00 | 0.71 | 0.71 | 96 | 1006.2 |
| 20260507084601 | 48 | 307 | 2.6 | 6.1 | 0.00 | 0.71 | 0.71 | 96 | 1006.3 |
| 20260507083057 | 48 | 323 | 2.6 | 6.1 | 0.00 | 0.71 | 0.71 | 97 | 1005.8 |
| 20260507081555 | 49 | 305 | 3.5 | 7.8 | 0.00 | 0.71 | 0.71 | 97 | 1005.9 |